This demonstration page uses our WeatherBlox Daily Observations layout. Learn more.

Left ArrowRight Arrow

34.74481, -87.66753

Hourly Observations for December 9, 2018

Temp ( °F °C ) Dew Point ( °F °C ) Humidity (%) Winds ( mph kmh ) Pressure ( in mb ) Visibility ( mi km ) Precip ( " mm )
12:53 am 00:53 Cloudy with Light Rain 42 5.6 40 4.4 92 92 NE 8 13 30.01 1016 6 10 0.03 0.76
1:10 am 01:10 Cloudy with Rain 42 5.6 39 3.9 89 89 NE 14 22 30.00 1016 7 11 0.05 1.27
1:23 am 01:23 Cloudy with Light Rain 42 5.6 39 3.9 89 89 NNE 12 19 30.00 1016 8 13 0.08 2.03
1:53 am 01:53 Cloudy with Light Rain 41 5 39 3.9 93 93 NE 16 26 29.99 1016 10 16 0.11 2.79
2:18 am 02:18 Cloudy with Light Rain 42 5.6 38 3.3 85 85 NE 12 19 30.03 1017 10 16 0.00 0.03
2:53 am 02:53 Cloudy with Light Rain 42 5.6 39 3.9 89 89 NE 12 19 30.02 1017 8 13 0.00 0.03
3:21 am 03:21 Cloudy 42 5.6 39 3.9 89 89 NE 9 15 30.03 1017 10 16 0.00 0.03
3:37 am 03:37 Cloudy with Mist and Fog 42 5.6 39 3.9 89 89 NE 10 17 30.03 1017 6 10 0.00 0.03
3:53 am 03:53 Cloudy with Light Rain 41 5 39 3.9 93 93 N 12 19 30.03 1017 6 10 0.00 0.03
4:53 am 04:53 Cloudy 40 4.4 38 3.3 93 93 NE 9 15 30.03 1017 8 13 0.04 1.02
5:37 am 05:37 Cloudy 41 5 38 3.3 89 89 NE 10 17 30.03 1017 10 16 0.00 0.00
5:53 am 05:53 Cloudy 41 5 38 3.3 89 89 NE 12 19 30.04 1017 10 16 0.00 0.00
6:53 am 06:53 Cloudy with Light Rain 41 5 38 3.3 89 89 NE 9 15 30.05 1018 10 16 0.00 0.03
7:53 am 07:53 Cloudy 41 5 38 3.3 89 89 NE 12 19 30.06 1018 9 14 0.00 0.03
8:01 am 08:01 Cloudy 41 5 38 3.3 89 89 NE 8 13 30.06 1018 8 13 0.00 0.00
8:18 am 08:18 Cloudy with Mist and Fog 41 5 39 3.9 93 93 NNE 9 15 30.06 1018 6 10 0.00 0.00
8:53 am 08:53 Cloudy with Mist and Fog 41 5 39 3.9 93 93 N 8 13 30.08 1019 6 10 0.00 0.00
9:53 am 09:53 Cloudy with Mist and Fog 40 4.4 38 3.3 93 93 N 8 13 30.10 1019 6 10 0.00 0.00
10:53 am 10:53 Cloudy 39 3.9 36 2.2 89 89 NNW 10 17 30.09 1019 7 11 0.00 0.00
11:53 am 11:53 Cloudy with Mist and Fog 38 3.3 35 1.7 89 89 N 7 11 30.08 1019 4 6 0.00 0.00
12:53 pm 12:53 Cloudy 38 3.3 35 1.7 89 89 N 7 11 30.08 1019 10 16 0.00 0.03
1:53 pm 13:53 Cloudy 38 3.3 35 1.7 89 89 N 9 15 30.08 1019 10 16 0.00 0.00
2:22 pm 14:22 Cloudy 39 3.9 36 2.2 89 89 N 8 13 30.06 1018 9 14 0.00 0.00
2:32 pm 14:32 Cloudy 39 3.9 35 1.7 86 86 N 5 7 30.06 1018 10 16 0.00 0.00
2:53 pm 14:53 Cloudy 39 3.9 35 1.7 86 86 N 8 13 30.08 1019 10 16 0.00 0.00
3:53 pm 15:53 Cloudy 38 3.3 35 1.7 89 89 N 8 13 30.10 1019 7 11 0.00 0.00
4:25 pm 16:25 Cloudy with Mist and Fog 38 3.3 35 1.7 89 89 NNW 7 11 30.09 1019 5 8 0.00 0.00
4:38 pm 16:38 Cloudy with Mist and Fog 37 2.8 35 1.7 93 93 N 7 11 30.09 1019 5 8 0.00 0.00
4:51 pm 16:51 Cloudy 37 3 36 2 93 93 NNW 9 15 30.09 1019 7 11 0.00 0.00
4:53 pm 16:53 Cloudy 37 2.8 35 1.7 93 93 N 8 13 30.11 1020 7 11 0.00 0.00
5:24 pm 17:24 Cloudy 37 2.8 34 1.1 89 89 N 9 15 30.12 1020 7 11 0.00 0.00
5:53 pm 17:53 Cloudy 37 2.8 34 1.1 89 89 N 7 11 30.13 1020 10 16 0.00 0.00
6:01 pm 18:01 Cloudy 37 2.8 34 1.1 89 89 NNW 8 13 30.12 1020 10 16 0.00 0.00
6:53 pm 18:53 Cloudy 37 2.8 34 1.1 89 89 N 8 13 30.14 1021 10 16 0.00 0.00
7:53 pm 19:53 Cloudy 37 2.8 34 1.1 89 89 N 8 13 30.14 1021 10 16 0.00 0.00
8:53 pm 20:53 Cloudy 38 3.3 34 1.1 86 86 N 6 9 30.15 1021 10 16 0.00 0.00
9:53 pm 21:53 Cloudy 38 3.3 34 1.1 86 86 NNW 8 13 30.15 1021 10 16 0.00 0.00
10:53 pm 22:53 Cloudy with Mist and Fog 38 3.3 35 1.7 89 89 NNW 7 11 30.16 1021 4 6 0.00 0.00
11:40 pm 23:40 Cloudy 38 3.3 34 1.1 86 86 NNW 6 9 30.15 1021 10 16 0.00 0.00
11:49 pm 23:49 Cloudy 37 3 34 1 87 87 NNW 7 11 30.15 1021 10 16 0.00 0.00
11:53 pm 23:53 Cloudy 38 3.3 34 1.1 86 86 N 8 13 30.15 1021 10 16 0.00 0.00

Powered by AerisWeather